Satellite-Ground Cal/Val Site Overpasses Predictions

Prediction of Satellite NPP Overpassing Cal/Val Site: Antarctic Dome C

Ground Cal/Val Site Location: Latitude: -75.10, Longitude: 123.35; Satellite-Ground Site NADIR distance within 100 km.

Table of predicted overpasses for the next 14.0 days since TLE Epoch: 9/4/2015
Interval Starting Time Ending Time Minimum Distance Time Minimum Distance (km)
1 09/05/2015 14:58:21 09/05/2015 14:58:50 09/05/2015 14:58:35 17.85
2 09/06/2015 14:39:38 09/06/2015 14:39:51 09/06/2015 14:39:44 89.26
3 09/07/2015 07:41:09 09/07/2015 07:41:36 09/07/2015 07:41:23 38.15
4 09/08/2015 07:22:22 09/08/2015 07:22:42 09/08/2015 07:22:32 72.05
5 09/10/2015 15:04:33 09/10/2015 15:04:57 09/10/2015 15:04:45 54.59
6 09/11/2015 14:45:43 09/11/2015 14:46:07 09/11/2015 14:45:55 54.55
7 09/12/2015 07:47:23 09/12/2015 07:47:43 09/12/2015 07:47:33 73.07
8 09/13/2015 07:28:28 09/13/2015 07:28:56 09/13/2015 07:28:42 34.93
9 09/15/2015 15:10:50 09/15/2015 15:11:01 09/15/2015 15:10:56 92.04
10 09/16/2015 14:51:51 09/16/2015 14:52:19 09/16/2015 14:52:05 19.17


NCC Satellite Cal/Val Overpasses Prediction Service
